Terminal Aerodrome Forecast
Issued by NWS Mobile, AL

Home | Current Version | Previous Version | Text Only | Print | Product List | Glossary On
Versions: 1 2 3 4 5 6 7 8 9 10 11 12 13
000
FTUS44 KMOB 190529
TAFPNS
TAF
KPNS 190529Z 1906/2006 22008KT P6SM SKC
     FM191100 25006KT P6SM BKN020 BKN050
     FM191600 33011KT P6SM FEW040 FEW250=

USA.gov is the U.S. government's official web portal to all federal, state and local government web resources and services.